Showing default

YUNYAO-1 46, 63347

Orbit data source: Space-Track

YUNYAO-1 46, 63347 is a payload satellite owned by Yunyao yuhang (CN) in SSO that was launched on Fri, 21 Mar 2025 UTC via a GUSHENXING 1 launch vehicle from the Jiuquan Satellite Launch Center, China (JSC). Payload-class satellites include a variety of spacecraft equipped with specific instruments for various scientific and technological missions. These include communications satellites like Starlink; space stations such as the ISS; scientific satellites like the Hubble; Earth observation satellites from companies like Planet Labs, Umbra, and HawkEye 360; GPS; miniature CubeSats for education and research; and military/defense satellites.

Loading next visibility...
Identifier
63347, 2025-059D
Orbit
SSO
Last TLE update
7 hours ago
Origin
Manufacturer
Changguang WJ
Mission
Operational spacecraft
Bus & Motor
YY-1, Unknown motor
Mass
~50 kg wet, ~50 kg dry
Launch date (UTC)
2025-03-21 (2 months ago)
Launch vehicle
GUSHENXING 1
Launch site
Jiuquan Satellite Launch Center, China (JSC)
Object type
Payload
Rocket body
Debris
Shape & HBR
Unknown
Radar Cross Section
Medium (>0.1 m² and <1 m²)

Expand to show TLE details & history

TLE from 7 hours ago
0 YUNYAO-1 46
1 63347U 25059D   25128.95595119  .00004842  00000-0  30071-3 0  9998
2 63347  97.6003 308.7477 0014731 120.5984 239.6700 15.10064961  7323
Epoch: 2025-05-08T22:56Z
Definitive object data (Epoch: 2025-05-08T22:56:34.182Z)
Latitude
-0.00007°
Longitude
97.58627°
Altitude
544.229 km
Speed
7.587 km/s
True Right ascension
20h 34m 59s
True Declination
0° 00' 00"
Sunlit
Object was in daylight at TLE epoch
Visualization TLE readout
Latitude
4.36783°
Longitude
-81.5381°
Altitude
532.884 km
Speed
7.6 km/s
Apparent Right ascension
06h 08m 40s
Apparent Declination
-23° 53' 47"
Sunlit
Object is in daylight
Visualization observer readout
Local Sidereal Time
14:13:26
Azimuth
269.496° W
Elevation
-38.541°
Doppler factor
1
Orbital elements
Apogee altitude
543.17 km
Perigee altitude
522.808 km
Semi-major axis
6,911.126 km
Eccentricity
0.0014731
Inclination
97.6003°
RAAN
308.7477°
Arg. of periapsis
120.5984°
True anomaly
239.52443°
Mean anomaly
239.67°
Eccentric anomaly
239.5972°
Mean motion
3.77763 °/min
BSTAR
0.00030071
Orbital period
95.3 mins
Loading maneuver chart data...
Loading SW <> Apogee altitude chart data...
Loading historical data...
Loading historical data...
Loading historical data...
Loading historical data...
Loading historical data...
Loading historical data...
Loading historical data...
Other satellites on launch #59 in the year 2025 (2025-03-21 UTC)

YUNYAO-1 46 Visibility forecast

Observer location: undefined°, undefined°

Span
Click to sort rows by Start time (UTC) header in descending order
Start Az.
Max El. time (UTC)
Max El. Az.
Max El.
End time (UTC)
End Az.
6 mins2025-05-09 11:47:39.560Z155.032° SSE2025-05-09 11:50:39.560Z82.718° E42.037°2025-05-09 11:53:39.560Z356.433° N
6 mins2025-05-10 00:57:39.560Z5.435° NNE2025-05-10 00:59:39.560Z337.233° NNW41.557°2025-05-10 01:03:39.560Z200.015° SSW
|